DECAYED

COSMOS 2251 DEB, 35839 (Decayed)

Orbit data source: Space-Track

COSMOS 2251 DEB, 35839 was space debris in LEO originally from a launch on Wed, 16 Jun 1993 UTC launched from the Plesetsk Missile And Space Complex (PKMTR). The debris from Iridium 33, an American commercial communications satellite, has been tracked extensively since its accidental collision with the defunct Russian satellite Cosmos 2251 in 2009. This event, occurring at high speed in low Earth orbit (LEO), generated thousands of pieces of space debris, significantly increasing the risk of further collisions. The Iridium 33 debris cloud has impacted space traffic management and orbital debris mitigation strategies, making it a subject of ongoing study in space situational awareness.

Not visible in the next 10 days
Identifier
35839, 1993-036ATM
Orbit
Decayed
Country
Flag of CISCIS
Related business
Manufacturer
Unknown
Mission
Decayed spacecraft
Bus & Motor
Unknown
Mass
Unknown
Launch date (UTC)
1993-06-16 (33 years ago)
Launch vehicle
Unknown
Launch site
Plesetsk Missile And Space Complex (PKMTR)
Object type
Payload
Rocket body
Debris
Shape & HBR
Unknown shape, 0.1 m
Radar Cross Section
Small (<0.1 m²)

Expand to show TLE details & history
Last TLE update: 6 months ago

TLE from 6 months ago
0 COSMOS 2251 DEB
1 35839U 93036ATM 25363.83435441  .01130896  00000-0  84989-2 0  9998
2 35839  74.2034 285.8727 0012487 145.9113 214.2916 15.69614020888345
Epoch: 2025-12-29T20:01Z
TLE epoch observation values (Epoch: 2025-12-29T20:01:28.221Z)
Latitude
0.00001°
Longitude
-113.02118°
Altitude
369.738 km
Speed
7.684 km/s
True Right ascension
19h 03m 29s
True Declination
0° 00' 00"
Sunlit
Object was in daylight at epoch
Visualization orbit readout
Latitude
Unknown
Longitude
Unknown
Altitude
Unknown
Speed
Unknown
Apparent Right ascension
Unknown
Apparent Declination
Unknown
Sunlit
N/A
Visualization observer readout
Local Sidereal Time
22:42:41
Azimuth
Unknown
Elevation
Unknown
Doppler factor
Unknown
Orbital elements
Apogee altitude
365.875 km
Perigee altitude
349.054 km
Semi-major axis
6,735.602 km
Eccentricity
0.00125
Inclination
74.2034°
RAAN
285.8727°
Arg. of periapsis
145.9113°
True anomaly
214.21109°
Mean anomaly
214.2916°
Eccentric anomaly
214.25133°
Mean motion
3.92626 °/min
Orbital period
91.69 mins
BSTAR
0.0084989
Loading maneuver chart data...
Computing Atmospheric mass density...

Documentation

Showing up to 5 results
|